This demonstration page uses our WeatherBlox Daily Observations layout. Learn more.

Hourly Observations for November 27, 2015

Temp ( °F °C ) Dew Point ( °F °C ) Humidity (%) Winds ( mph kmh ) Pressure ( in mb ) Visibility ( mi km ) Precip ( " mm )
12:15 am 00:15 Cloudy 21 -6 18 -8 86 86 N 20 31 30.62 1037 10 16.09344 0 0
12:35 am 00:35 Cloudy 21 -6 18 -8 86 86 N 16 26 30.62 1037 10 16.09344 0 0
12:55 am 00:55 Cloudy 21 -6 16 -9 80 80 N 15 24 30.65 1038 10 16.09344 0 0
1:15 am 01:15 Mostly Cloudy 19 -7 14 -10 79 79 N 15 24 30.62 1037 10 16.09344 0 0
1:35 am 01:35 Mostly Cloudy 19 -7 14 -10 79 79 N 17 28 30.62 1037 10 16.09344 0 0
1:55 am 01:55 Cloudy 19 -7 14 -10 79 79 N 16 26 30.65 1038 10 16.09344 0 0
2:15 am 02:15 Cloudy 19 -7 16 -9 86 86 N 18 30 30.65 1038 10 16.09344 0 0
2:35 am 02:35 Cloudy 19 -7 16 -9 86 86 N 16 26 30.65 1038 10 16.09344 0 0
2:55 am 02:55 Cloudy 19 -7 14 -10 79 79 N 14 22 30.65 1038 10 16.09344 0 0
3:15 am 03:15 Cloudy 19 -7 14 -10 79 79 N 16 26 30.65 1038 10 16.09344 0 0
3:35 am 03:35 Cloudy 19 -7 14 -10 79 79 N 17 28 30.65 1038 10 16.09344 0 0
3:55 am 03:55 Cloudy 19 -7 14 -10 79 79 N 15 24 30.65 1038 10 16.09344 0 0
4:15 am 04:15 Cloudy 19 -7 14 -10 79 79 N 16 26 30.65 1038 10 16.09344 0 0
4:35 am 04:35 Cloudy 19 -7 14 -10 79 79 N 17 28 30.65 1038 10 16.09344 0 0
4:55 am 04:55 Cloudy 19 -7 14 -10 79 79 N 20 31 30.65 1038 10 16.09344 0 0
5:15 am 05:15 Cloudy 19 -7 14 -10 79 79 N 17 28 30.65 1038 10 16.09344 0 0
5:35 am 05:35 Cloudy 19 -7 14 -10 79 79 N 15 24 30.68 1039 10 16.09344 0 0
5:55 am 05:55 Cloudy 19 -7 14 -10 79 79 N 13 20 30.65 1038 10 16.09344 0 0
6:15 am 06:15 Cloudy 19 -7 14 -10 79 79 N 15 24 30.68 1039 10 16.09344 0 0
6:35 am 06:35 Cloudy 19 -7 14 -10 79 79 N 15 24 30.68 1039 10 16.09344 0 0
6:55 am 06:55 Cloudy 19 -7 14 -10 79 79 N 13 20 30.68 1039 10 16.09344 0 0
7:15 am 07:15 Cloudy 19 -7 14 -10 79 79 N 14 22 30.68 1039 10 16.09344 0 0
7:35 am 07:35 Cloudy 19 -7 14 -10 79 79 N 16 26 30.68 1039 10 16.09344 0 0
7:55 am 07:55 Cloudy 19 -7 14 -10 79 79 N 17 28 30.65 1038 10 16.09344 0 0
8:15 am 08:15 Cloudy 19 -7 14 -10 79 79 N 18 30 30.68 1039 10 16.09344 0 0
8:35 am 08:35 Cloudy 19 -7 14 -10 79 79 N 16 26 30.71 1040 10 16.09344 0 0
8:55 am 08:55 Cloudy 19 -7 14 -10 79 79 N 16 26 30.71 1040 10 16.09344 0 0
9:15 am 09:15 Cloudy 19 -7 14 -10 79 79 N 16 26 30.68 1039 10 16.09344 0 0
9:35 am 09:35 Cloudy 19 -7 14 -10 79 79 N 20 31 30.65 1038 10 16.09344 0 0
9:55 am 09:55 Cloudy 19 -7 14 -10 79 79 N 12 19 30.71 1040 10 16.09344 0 0
10:15 am 10:15 Cloudy 19 -7 14 -10 79 79 N 10 17 30.71 1040 10 16.09344 0 0
10:35 am 10:35 Cloudy 19 -7 14 -10 79 79 N 16 26 30.68 1039 10 16.09344 0 0
10:55 am 10:55 Cloudy 21 -6 14 -10 74 74 N 16 26 30.68 1039 10 16.09344 0 0
11:15 am 11:15 Cloudy 21 -6 14 -10 74 74 N 14 22 30.68 1039 10 16.09344 0 0
11:35 am 11:35 Cloudy 21 -6 14 -10 74 74 N 16 26 30.68 1039 10 16.09344 0 0
11:55 am 11:55 Cloudy 23 -5 14 -10 68 68 N 17 28 30.68 1039 10 16.09344 0 0
12:15 pm 12:15 Cloudy 23 -5 14 -10 68 68 N 15 24 30.68 1039 10 16.09344 0 0
12:35 pm 12:35 Cloudy 23 -5 14 -10 68 68 N 15 24 30.68 1039 10 16.09344 0 0
12:55 pm 12:55 Cloudy 23 -5 16 -9 74 74 N 14 22 30.68 1039 10 16.09344 0 0
1:15 pm 13:15 Cloudy 23 -5 16 -9 74 74 N 15 24 30.68 1039 10 16.09344 0 0
1:35 pm 13:35 Cloudy 23 -5 16 -9 74 74 N 13 20 30.68 1039 10 16.09344 0 0
1:55 pm 13:55 Cloudy 23 -5 16 -9 74 74 N 15 24 30.62 1037 10 16.09344 0 0
2:15 pm 14:15 Cloudy 23 -5 16 -9 74 74 N 15 24 30.62 1037 10 16.09344 0 0
2:35 pm 14:35 Cloudy 25 -4 16 -9 69 69 N 14 22 30.62 1037 10 16.09344 0 0
2:55 pm 14:55 Cloudy 25 -4 16 -9 69 69 N 13 20 30.62 1037 10 16.09344 0 0
3:15 pm 15:15 Cloudy 25 -4 16 -9 69 69 N 13 20 30.62 1037 10 16.09344 0 0
3:35 pm 15:35 Cloudy 25 -4 16 -9 69 69 N 16 26 30.62 1037 10 16.09344 0 0
3:55 pm 15:55 Cloudy 25 -4 16 -9 69 69 N 13 20 30.62 1037 10 16.09344 0 0
4:15 pm 16:15 Cloudy 25 -4 16 -9 69 69 NNE 12 19 30.62 1037 10 16.09344 0 0
4:35 pm 16:35 Cloudy 23 -5 16 -9 74 74 N 14 22 30.62 1037 10 16.09344 0 0
4:55 pm 16:55 Cloudy 23 -5 16 -9 74 74 NNE 12 19 30.62 1037 10 16.09344 0 0
5:15 pm 17:15 Cloudy 23 -5 16 -9 74 74 NNE 14 22 30.62 1037 10 16.09344 0 0
5:35 pm 17:35 Cloudy 23 -5 16 -9 74 74 NNE 14 22 30.62 1037 10 16.09344 0 0
5:55 pm 17:55 Cloudy 23 -5 16 -9 74 74 NNE 14 22 30.62 1037 10 16.09344 0 0
6:15 pm 18:15 Cloudy 23 -5 16 -9 74 74 N 12 19 30.62 1037 10 16.09344 0 0
6:35 pm 18:35 Cloudy 23 -5 16 -9 74 74 NNE 14 22 30.62 1037 10 16.09344 0 0
6:55 pm 18:55 Cloudy 23 -5 16 -9 74 74 NNE 14 22 30.62 1037 10 16.09344 0 0
7:15 pm 19:15 Cloudy 23 -5 16 -9 74 74 N 14 22 30.62 1037 10 16.09344 0 0
7:35 pm 19:35 Cloudy 23 -5 18 -8 80 80 NNE 12 19 30.62 1037 10 16.09344 0 0
7:55 pm 19:55 Cloudy 23 -5 16 -9 74 74 NNE 12 19 30.62 1037 10 16.09344 0 0
8:15 pm 20:15 Cloudy 23 -5 16 -9 74 74 NNE 9 15 30.62 1037 10 16.09344 0 0
8:35 pm 20:35 Cloudy 23 -5 16 -9 74 74 NNE 9 15 30.62 1037 10 16.09344 0 0
8:55 pm 20:55 Cloudy 23 -5 16 -9 74 74 NNE 10 17 30.62 1037 10 16.09344 0 0
9:15 pm 21:15 Cloudy 23 -5 16 -9 74 74 NNE 10 17 30.62 1037 10 16.09344 0 0
9:35 pm 21:35 Cloudy 23 -5 18 -8 80 80 N 8 13 30.62 1037 10 16.09344 0 0
9:55 pm 21:55 Cloudy 23 -5 18 -8 80 80 N 8 13 30.62 1037 10 16.09344 0 0
10:15 pm 22:15 Cloudy 23 -5 18 -8 80 80 N 10 17 30.62 1037 10 16.09344 0 0
10:35 pm 22:35 Cloudy 23 -5 16 -9 74 74 NNE 12 19 30.59 1036 10 16.09344 0 0
10:55 pm 22:55 Cloudy 23 -5 16 -9 74 74 N 9 15 30.59 1036 10 16.09344 0 0
11:15 pm 23:15 Cloudy 23 -5 16 -9 74 74 NNE 12 19 30.59 1036 10 16.09344 0 0
11:35 pm 23:35 Cloudy 23 -5 16 -9 74 74 NNE 10 17 30.59 1036 10 16.09344 0 0
11:55 pm 23:55 Cloudy 23 -5 16 -9 74 74 NNE 9 15 30.59 1036 10 16.09344 0 0

Powered by AerisWeather